Location: �clusier
(49.9361°N, 2.7869°E)
Time: 20:11:17
(UTC+00:00)

ATLAS CENTAUR R/B - Pass Details

Date: 22 October 2021
Orbit: 459 x 682 km, 64.7° (Epoch: 25 November)

Event Time Altitude Azimuth Distance (km) Brightness Sun altitude
Exits shadow 05:27:27 10° 300° (WNW) 1,861 3.5 -9.4°
Maximum altitude 05:30:07 17° 340° (NNW) 1,543 3.3 -9.0°
Drops below altitude 10° 05:33:00 10° 21° (NNE) 1,978 4.3 -8.6°
Sets 05:36:07 0° 42° (NE) 2,934 5.5 -8.1°
